Regional Weather Roundup
Issued by NWS

Home | Current Version | Previous Version | Text Only | Print | Product List | Glossary On
Versions: 1 2 3 4 5 6 7 8 9 10 11 12 13 14 15 16 17 18 19 20 21 22 23 24 25 26 27 28 29 30 31 32 33 34 35 36 37 38 39 40 41 42 43 44 45 46 47 48 49 50
000
ASUS43 KDTX 222110
RWRMI
MICHIGAN HOURLY REGIONAL WEATHER ROUNDUP
NATIONAL WEATHER SERVICE DETROIT/PONTIAC MI
ISSUED BY NATIONAL WEATHER SERVICE GRAND RAPIDS MI
500 PM EDT MON MAY 22 2017

NOTE: "FAIR" INDICATES FEW OR NO CLOUDS BELOW 12,000 FEET WITH NO
SIGNIFICANT WEATHER AND/OR OBSTRUCTION TO VISIBILITY.

MIZ047>049-052>055-059>063-066>070-074>076-081>083-222200-
SOUTHEAST LOWER MICHIGAN

CITY           SKY/WX    TMP DP  RH WIND       PRES   REMARKS
ADRIAN         SUNNY     69  46  43 W14G20    29.99F
ALMA           MOSUNNY   66  43  44 SW17G28   29.93S
ANN ARBOR      MOSUNNY   68  46  45 SW14      29.97S
BAD AXE        MOSUNNY   64  42  45 W14G20    29.90F
DETROIT CITY   MOSUNNY   69  44  40 SW14G22   29.95F
DETROIT        MOSUNNY   69  46  43 W10G23    29.97S
FLINT          SUNNY     67  42  40 W16G29    29.94R
GROSSE ILE     MOSUNNY   69  45  41 W13G21    29.96F
HILLSDALE      MOSUNNY   64  45  48 W12       29.99S
HOWELL         SUNNY     68  42  37 W14       29.96R

CITY           SKY/WX    TMP DP  RH WIND       PRES   REMARKS
JACKSON        MOSUNNY   68  46  45 SW13G22   29.97S
LANSING        SUNNY     68  42  38 W21G26    29.96R
MASON          SUNNY     68  46  44 W12G21    29.96S
MONROE         MOSUNNY   70  46  42 W16G22    29.97F
MT. CLEMENS    MOSUNNY   70  45  40 W16G23    29.93S
PONTIAC        MOSUNNY   68  42  38 W15G28    29.94S
PORT HOPE        N/A     63  44  50 W12G17    29.88F
PORT HURON     MOSUNNY   68  39  34 W12G17    29.93F
TRI CITIES     SUNNY     67  44  43 W21G28    29.91R
YPSILANTI      MOSUNNY   70  47  43 W16       29.97S
$$
MIZ043>046-050>051-056>058-064>065-071>073-077>080-222200-
SOUTHWEST LOWER MICHIGAN

CITY           SKY/WX    TMP DP  RH WIND       PRES   REMARKS
BATTLE CREEK   SUNNY     69  44  40 W13G23    29.97F
BENTON HARBOR  SUNNY     71  43  36 SW20G25   29.96F
BIG RAPIDS     MOSUNNY   62  42  47 W14G22    29.90S
COLDWATER      MOSUNNY   68  45  42 SW14G22   29.98F
HOLLAND        MOSUNNY   67  45  45 SW20      29.95F
GRAND RAPIDS   MOSUNNY   67  45  45 W18G28    29.94F
KALAMAZOO      MOSUNNY   70  41  34 W15G26    29.97F
MARSHALL       MOSUNNY   68  45  43 SW12G22   29.97S
MOUNT PLEASANT SUNNY     66  41  40 W15G26    29.91R
MUSKEGON       CLOUDY    61  44  53 SW17G28   29.94F
STURGIS        PTSUNNY   68  49  50 SW12G20   29.98F
$$
MIZ016>042-222200-
NORTHERN LOWER MICHIGAN

CITY           SKY/WX    TMP DP  RH WIND       PRES   REMARKS
ALPENA         PTSUNNY   60  43  53 SW9       29.86F
BEAVER ISLAND  MOSUNNY   56  43  61 SW18G26   29.85R
BELLAIRE       PTSUNNY   61  40  46 SW8       29.88S
CADILLAC       MOSUNNY   63  42  47 W14G22    29.89S
CHARLEVOIX     SUNNY     59  43  55 SW17      29.89S
GAYLORD        PTSUNNY   58  38  47 W14G28    29.87S
HOUGHTON LAKE  MOSUNNY   62  40  44 W15G24    29.89R
OSCODA         PTSUNNY   66  40  39 W15G21    29.87F
PELLSTON       SUNNY     58  41  53 SW15G26   29.86S
TRAVERSE CITY  MOSUNNY   65  40  39 SW14G25   29.86S
LUDINGTON      MOSUNNY   60  46  59 SW15G26   29.89F
$$
MIZ007>008-015-222200-
EASTERN UPPER MICHIGAN

CITY           SKY/WX    TMP DP  RH WIND       PRES   REMARKS
KINROSS        CLOUDY    52  46  80 SW8G18    29.83R
MACKINAC ISLAN PTSUNNY   52  45  75 SW20G29   29.84S
NEWBERRY       CLOUDY    51  50  95 SW8       29.82R
S. S. MARIE    CLOUDY    51  49  92 W5        29.82R FOG
$$
MIZ004>006-011>014-085-222200-
CENTRAL UPPER MICHIGAN

CITY           SKY/WX    TMP DP  RH WIND       PRES   REMARKS
MANISTIQUE     PTSUNNY   47  42  82 S10G17    29.82S
ESCANABA       CLOUDY    55  45  68 S10       29.80S
MENOMINEE      PTSUNNY   65  42  43 W9G22     29.79F
SAWYER-GWINN   CLOUDY    52  43  71 W6        29.79R
$$
MIZ001>003-009>011-084-222200-
WESTERN UPPER MICHIGAN

CITY           SKY/WX    TMP DP  RH WIND       PRES   REMARKS
IRON MOUNTAIN  LGT RAIN  57  40  52 SW13      29.78R
HOUGHTON       CLOUDY    53  42  66 W15       29.77R
COPPER HARBOR    N/A     51  43  74 N8        29.77R
IRONWOOD       CLOUDY    51  44  77 W10       29.81R
$$

ABBREVIATIONS USED IN REMARKS
   TC - TEMPERATURE IN CELSIUS
  WCI - WIND CHILL INDEX
   HX - HEAT INDEX
  VSB - VISIBILITY





USA.gov is the U.S. government's official web portal to all federal, state and local government web resources and services.